Regional Weather Roundup
Issued by NWS

Home | Current Version | Previous Version | Graphics & Text | Print | Product List | Glossary On
Versions: 1 2 3 4 5 6 7 8 9 10 11 12 13 14 15 16 17 18 19 20 21 22 23 24 25 26 27 28 29 30 31 32 33 34 35 36 37 38 39 40 41 42 43 44 45 46 47 48 49 50
000
ASUS45 KPSR 011710
RWRAZ

ARIZONA REGIONAL HOURLY WEATHER ROUNDUP
NATIONAL WEATHER SERVICE PHOENIX AZ
1000 AM MST FRI AUG 01 2014

NOTE: FAIR INDICATES FEW OR NO CLOUDS BELOW 12,000 FEET WITH NO
SIGNIFICANT WEATHER AND/OR OBSTRUCTIONS TO VISIBILITY.

AZZ001>003-036-011800-
NORTHWEST ARIZONA

CITY           SKY/WX    TMP DP  RH WIND       PRES   REMARKS
BULLHEAD CITY  SUNNY     99  57  25 S16G23    29.91S
KINGMAN        SUNNY     91  49  23 SW21G26   30.11S
$$

AZZ004>008-015-016-018-011800-
NORTH CENTRAL ARIZONA

CITY           SKY/WX    TMP DP  RH WIND       PRES   REMARKS
GRAND CANYON   MOSUNNY   75  50  41 SW10G17   30.34S
WILLIAMS       MOSUNNY   72  50  46 SW8       30.41S
PRESCOTT       CLOUDY    78  52  40 VRB3      30.24S
FLAGSTAFF      MOSUNNY   71  55  56 S8        30.37S
PAYSON         MOSUNNY   79  54  41 NW5       30.26R
PAGE           MOSUNNY   83  50  31 NW3       30.17S
$$

AZZ009>014-017-011800-
NORTHEAST ARIZONA

CITY           SKY/WX    TMP DP  RH WIND       PRES   REMARKS
WINSLOW        MOSUNNY   82  51  34 CALM      30.21F
SAINT JOHNS    MOSUNNY   75  55  49 S7        30.26F
WINDOW ROCK    PTSUNNY   71  53  52 W3        30.34S
SHOW LOW       SUNNY     70  50  49 W6        30.34S
$$

AZZ023-011800-
GREATER PHOENIX AREA

CITY           SKY/WX    TMP DP  RH WIND       PRES   REMARKS
PHOENIX        CLOUDY    88  65  46 S6        29.97F
BUCKEYE          N/A     86  68  54 NE5       29.99S
GLENDALE       CLOUDY    88  64  45 E5        30.00S
LUKE AFB       NOT AVBL
DEER VALLEY    CLOUDY    85  63  47 S7        30.00S
SCOTTSDALE     CLOUDY    85  64  49 S5        30.01F
MESA-GATEWAY   PTSUNNY   86  64  48 SE6       30.02S
CHANDLER       CLOUDY    84  66  54 CALM      30.00S
$$

AZZ027-028-011800-
SOUTHWEST MARICOPA COUNTY AND PINAL COUNTY

CITY           SKY/WX    TMP DP  RH WIND       PRES   REMARKS
CASA GRANDE    CLOUDY    81  66  61 E6        30.01S
GILA BEND      PTSUNNY   90  64  43 NE10      29.97S
$$

AZZ503-504-507>509-011800-
SOUTHEAST ARIZONA

CITY           SKY/WX    TMP DP  RH WIND       PRES   REMARKS
TUCSON         CLOUDY    78  69  73 SE8       30.09S
DAVIS-MONTHAN  CLOUDY    77  69  76 SE6       30.08S
RYAN FIELD       N/A     79  68  69 E13       30.07S
NOGALES        CLOUDY    77  63  61 S6        30.15S
SIERRA VISTA   MOSUNNY   73  61  64 E6        30.22R
DOUGLAS        CLOUDY    71  64  78 S8        30.20R
SAFFORD        MOSUNNY   82  61  48 VRB5      30.12F
$$

AZZ020-021-025-026-031-011800-
SOUTHWEST ARIZONA

CITY           SKY/WX    TMP DP  RH WIND       PRES   REMARKS
YUMA           PTSUNNY   99  60  27 S9        29.89R
$$

CAZ031-033-041-043-047-048-061-011800-
SOUTHERN CALIFORNIA

CITY           SKY/WX    TMP DP  RH WIND       PRES   REMARKS
DOWNTOWN L.A.  SUNNY     77  64  64 CALM      29.91F
L.A. AIRPORT   MOSUNNY   75  63  66 W8        29.93F
SAN DIEGO      MOSUNNY   73  63  70 VRB5      29.94S
BURBANK        SUNNY     76  61  59 CALM      29.93F
ONTARIO        SUNNY     82  61  48 SW5       29.92F
RIVERSIDE      SUNNY     80  61  52 CALM      29.92F
PALM SPRINGS   SUNNY     95  70  44 E6        29.92S HX 101
EL CENTRO NAS  MOSUNNY   97  74  47 VRB7      29.86R HX 108
IMPERIAL       SUNNY     98  68  37 S10       29.85S HX 103
BLYTHE           N/A    N/A N/A N/A MISG      29.90S
NEEDLES        SUNNY    101  55  21 S14G22    29.92S
$$

NVZ020-UTZ003-011800-
SOUTHERN NEVADA-UTAH

CITY           SKY/WX    TMP DP  RH WIND       PRES   REMARKS
LAS VEGAS      MOSUNNY   94  53  25 S6        29.94S
SALT LAKE CITY MOSUNNY   81  51  35 CALM      30.17S
$$

NMZ009-TXZ055-011800-
NEW MEXICO-WEST TEXAS

CITY           SKY/WX    TMP DP  RH WIND       PRES   REMARKS
ALBUQUERQUE    PTSUNNY   71  54  54 SE6       30.29S
EL PASO        LGT RAIN  70  63  78 N16       30.19R
$$


........................KEY........................
SKY/WX - SKY CONDITION/WEATHER
TMP    - TEMPERATURE IN FAHRENHEIT
DP     - DEW POINT IN FAHRENHEIT
RH     - RELATIVE HUMIDITY IN PERCENT
WIND   - DIRECTION AND SPEED IN MILES PER HOUR (MPH)
VRB    - VARIABLE WIND DIRECTION
PRES   - MEAN SEA LEVEL PRESSURE IN INCHES OF MERCURY
         F - FALLING PRESSURE   R - RISING PRESSURE
         S - STEADY PRESSURE
VSB    - VISIBILITY IN MILES
HX     - HEAT INDEX IN FAHRENHEIT
WCI    - WIND CHILL INDEX IN FAHRENHEIT
TC     - TEMPERATURE IN CELSIUS WHICH IS ALSO KNOWN AS
         TEMPERATURE IN CENTIGRADE
AFB    - AIR FORCE BASE
         LUKE AFB IS LUKE AIR FORCE BASE
         DAVIS-MONTHAN IS DAVIS-MONTHAN AIR FORCE BASE
NAS    - NAVAL AIR STATION
         EL CENTRO NAS IS EL CENTRO NAVAL AIR STATION
N/A    - NOT AVAILABLE


USA.gov is the U.S. government's official web portal to all federal, state and local government web resources and services.